Time,TemperatureF,DewpointF,PressureIn,WindDirection,WindDirectionDegrees,WindSpeedMPH,WindSpeedGustMPH,Humidity,HourlyPrecipIn,Conditions,Clouds,dailyrainin,SoftwareType,DateUTC
2013-05-24 00:03:00,47.2,46.0,29.97,North,358,0.0,0.0,97,0.00,,,0.00,weatherlink.com 1.10,2013-05-24 07:03:00,
2013-05-24 00:18:00,47.0,46.0,29.97,North,357,0.0,0.0,97,0.01,,,0.01,weatherlink.com 1.10,2013-05-24 07:18:00,
2013-05-24 00:33:00,47.0,46.0,29.97,North,357,0.0,0.0,97,0.01,,,0.01,weatherlink.com 1.10,2013-05-24 07:33:00,
2013-05-24 00:48:00,47.0,46.0,29.97,North,357,0.0,0.0,97,0.01,,,0.01,weatherlink.com 1.10,2013-05-24 07:48:00,
2013-05-24 01:03:00,46.9,46.0,29.97,North,356,0.0,0.0,97,0.01,,,0.01,weatherlink.com 1.10,2013-05-24 08:03:00,
2013-05-24 01:18:00,46.8,46.0,29.97,NNE,23,0.0,1.0,97,0.00,,,0.01,weatherlink.com 1.10,2013-05-24 08:18:00,
2013-05-24 01:33:00,46.3,46.0,29.97,NNE,23,0.0,0.0,97,0.00,,,0.01,weatherlink.com 1.10,2013-05-24 08:33:00,
2013-05-24 01:48:00,46.0,45.0,29.97,North,356,0.0,1.0,97,0.00,,,0.01,weatherlink.com 1.10,2013-05-24 08:48:00,
2013-05-24 02:03:00,45.7,45.0,29.97,WNW,284,0.0,0.0,97,0.00,,,0.01,weatherlink.com 1.10,2013-05-24 09:03:00,
2013-05-24 02:18:00,45.2,44.0,29.97,West,274,0.0,0.0,97,0.00,,,0.01,weatherlink.com 1.10,2013-05-24 09:18:00,
2013-05-24 02:33:00,44.9,44.0,29.97,West,274,0.0,0.0,98,0.00,,,0.01,weatherlink.com 1.10,2013-05-24 09:33:00,
2013-05-24 02:48:00,44.8,44.0,29.97,West,274,0.0,0.0,98,0.00,,,0.01,weatherlink.com 1.10,2013-05-24 09:48:00,
2013-05-24 03:03:00,44.7,44.0,29.97,West,274,0.0,0.0,98,0.00,,,0.01,weatherlink.com 1.10,2013-05-24 10:03:00,
2013-05-24 03:18:00,44.7,44.0,29.97,West,274,0.0,0.0,98,0.00,,,0.01,weatherlink.com 1.10,2013-05-24 10:18:00,
2013-05-24 03:33:00,45.0,45.0,29.97,West,274,0.0,0.0,98,0.00,,,0.01,weatherlink.com 1.10,2013-05-24 10:33:00,
2013-05-24 03:48:00,44.8,44.0,29.96,West,274,0.0,0.0,98,0.00,,,0.01,weatherlink.com 1.10,2013-05-24 10:48:00,
2013-05-24 04:03:00,44.7,44.0,29.97,West,274,0.0,0.0,98,0.00,,,0.01,weatherlink.com 1.10,2013-05-24 11:03:00,
2013-05-24 04:18:00,44.9,44.0,29.97,West,274,0.0,0.0,98,0.00,,,0.01,weatherlink.com 1.10,2013-05-24 11:18:00,
2013-05-24 04:33:00,45.2,45.0,29.97,West,274,0.0,0.0,98,0.00,,,0.01,weatherlink.com 1.10,2013-05-24 11:33:00,
2013-05-24 04:48:00,45.5,45.0,29.97,West,274,0.0,0.0,98,0.00,,,0.01,weatherlink.com 1.10,2013-05-24 11:48:00,
2013-05-24 05:03:00,45.8,45.0,29.97,West,274,0.0,1.0,98,0.00,,,0.01,weatherlink.com 1.10,2013-05-24 12:03:00,
2013-05-24 05:18:00,45.8,45.0,29.98,West,274,0.0,0.0,98,0.00,,,0.01,weatherlink.com 1.10,2013-05-24 12:18:00,
2013-05-24 05:33:00,45.8,45.0,29.98,West,274,0.0,0.0,98,0.00,,,0.01,weatherlink.com 1.10,2013-05-24 12:33:00,
2013-05-24 05:48:00,46.0,46.0,29.98,West,274,0.0,0.0,98,0.01,,,0.02,weatherlink.com 1.10,2013-05-24 12:48:00,
2013-05-24 06:03:00,46.3,46.0,29.98,West,274,0.0,0.0,98,0.01,,,0.02,weatherlink.com 1.10,2013-05-24 13:03:00,
2013-05-24 06:19:00,46.5,46.0,29.98,West,274,0.0,0.0,98,0.01,,,0.02,weatherlink.com 1.10,2013-05-24 13:19:00,
2013-05-24 06:34:00,46.9,46.0,29.98,West,274,0.0,0.0,98,0.01,,,0.02,weatherlink.com 1.10,2013-05-24 13:34:00,
2013-05-24 06:49:00,47.5,47.0,29.99,West,274,0.0,0.0,98,0.00,,,0.02,weatherlink.com 1.10,2013-05-24 13:49:00,
2013-05-24 07:04:00,48.1,48.0,29.99,West,277,0.0,0.0,98,0.00,,,0.02,weatherlink.com 1.10,2013-05-24 14:04:00,
2013-05-24 07:19:00,48.4,48.0,29.99,West,278,0.0,0.0,98,0.00,,,0.02,weatherlink.com 1.10,2013-05-24 14:19:00,
2013-05-24 07:34:00,48.6,48.0,29.99,West,277,0.0,0.0,98,0.00,,,0.02,weatherlink.com 1.10,2013-05-24 14:34:00,
2013-05-24 07:49:00,49.1,48.0,30.00,West,278,0.0,0.0,97,0.00,,,0.02,weatherlink.com 1.10,2013-05-24 14:49:00,
2013-05-24 08:04:00,49.3,48.0,30.00,West,277,0.0,0.0,96,0.00,,,0.02,weatherlink.com 1.10,2013-05-24 15:04:00,
2013-05-24 08:19:00,50.3,49.0,30.00,SE,139,0.0,2.0,94,0.00,,,0.02,weatherlink.com 1.10,2013-05-24 15:19:00,
2013-05-24 08:34:00,51.0,49.0,30.00,South,181,0.0,1.0,94,0.00,,,0.02,weatherlink.com 1.10,2013-05-24 15:34:00,
2013-05-24 08:49:00,52.4,49.0,30.00,South,172,0.0,2.0,89,0.00,,,0.02,weatherlink.com 1.10,2013-05-24 15:49:00,
2013-05-24 09:04:00,53.5,49.0,30.00,SE,143,4.0,4.0,83,0.00,,,0.02,weatherlink.com 1.10,2013-05-24 16:04:00,
2013-05-24 09:19:00,53.9,48.0,30.01,SSE,160,2.0,4.0,81,0.00,,,0.02,weatherlink.com 1.10,2013-05-24 16:19:00,
2013-05-24 09:34:00,54.5,49.0,30.00,ESE,117,2.0,4.0,81,0.00,,,0.02,weatherlink.com 1.10,2013-05-24 16:34:00,
2013-05-24 09:49:00,55.3,49.0,30.00,South,172,2.0,4.0,79,0.00,,,0.02,weatherlink.com 1.10,2013-05-24 16:49:00,
2013-05-24 10:04:00,57.0,50.0,30.00,WSW,238,3.0,7.0,76,0.00,,,0.02,weatherlink.com 1.10,2013-05-24 17:04:00,
2013-05-24 10:19:00,56.8,50.0,30.00,ESE,114,0.0,3.0,77,0.00,,,0.02,weatherlink.com 1.10,2013-05-24 17:19:00,
2013-05-24 10:34:00,58.7,52.0,30.00,South,186,2.0,4.0,77,0.00,,,0.02,weatherlink.com 1.10,2013-05-24 17:34:00,
2013-05-24 10:49:00,57.3,50.0,30.01,SW,215,0.0,5.0,77,0.00,,,0.02,weatherlink.com 1.10,2013-05-24 17:49:00,
2013-05-24 11:04:00,55.9,49.0,30.01,WSW,252,0.0,3.0,78,0.00,,,0.02,weatherlink.com 1.10,2013-05-24 18:04:00,
2013-05-24 11:19:00,55.2,49.0,30.02,SW,229,0.0,4.0,80,0.00,,,0.02,weatherlink.com 1.10,2013-05-24 18:19:00,
2013-05-24 11:34:00,54.1,49.0,30.02,West,269,0.0,1.0,83,0.00,,,0.02,weatherlink.com 1.10,2013-05-24 18:34:00,
2013-05-24 11:49:00,54.3,49.0,30.02,ESE,123,0.0,5.0,81,0.00,,,0.02,weatherlink.com 1.10,2013-05-24 18:49:00,
2013-05-24 12:04:00,53.8,48.0,30.02,WSW,246,0.0,5.0,81,0.00,,,0.02,weatherlink.com 1.10,2013-05-24 19:04:00,
2013-05-24 12:19:00,55.3,49.0,30.02,SSE,166,1.0,6.0,78,0.00,,,0.02,weatherlink.com 1.10,2013-05-24 19:19:00,
2013-05-24 12:34:00,56.5,49.0,30.02,SSE,148,2.0,5.0,76,0.00,,,0.02,weatherlink.com 1.10,2013-05-24 19:34:00,
2013-05-24 12:49:00,57.7,49.0,30.01,East,92,6.0,7.0,74,0.00,,,0.02,weatherlink.com 1.10,2013-05-24 19:49:00,
2013-05-24 13:04:00,59.2,50.0,30.01,ESE,120,4.0,7.0,72,0.00,,,0.02,weatherlink.com 1.10,2013-05-24 20:04:00,
2013-05-24 13:20:00,60.3,49.0,30.01,WSW,253,0.0,5.0,67,0.00,,,0.02,weatherlink.com 1.10,2013-05-24 20:20:00,
2013-05-24 13:50:00,60.2,49.0,30.01,West,262,1.0,5.0,67,0.00,,,0.02,weatherlink.com 1.10,2013-05-24 20:50:00,
2013-05-24 14:05:00,61.6,48.0,30.00,SSE,162,4.0,8.0,62,0.00,,,0.02,weatherlink.com 1.10,2013-05-24 21:05:00,
2013-05-24 14:20:00,62.7,47.0,30.00,SE,131,3.0,6.0,57,0.00,,,0.02,weatherlink.com 1.10,2013-05-24 21:20:00,
2013-05-24 14:35:00,62.5,47.0,30.00,SW,222,0.0,6.0,58,0.00,,,0.02,weatherlink.com 1.10,2013-05-24 21:35:00,
2013-05-24 14:50:00,63.6,46.0,30.00,West,259,3.0,6.0,54,0.00,,,0.02,weatherlink.com 1.10,2013-05-24 21:50:00,
2013-05-24 15:05:00,63.9,46.0,30.00,WSW,240,0.0,7.0,53,0.00,,,0.02,weatherlink.com 1.10,2013-05-24 22:05:00,
2013-05-24 15:20:00,64.7,48.0,29.99,SE,142,3.0,9.0,55,0.00,,,0.02,weatherlink.com 1.10,2013-05-24 22:20:00,
2013-05-24 15:35:00,63.0,47.0,30.00,ESE,114,3.0,7.0,57,0.00,,,0.02,weatherlink.com 1.10,2013-05-24 22:35:00,
2013-05-24 15:50:00,61.6,47.0,29.99,East,87,1.0,7.0,59,0.00,,,0.02,weatherlink.com 1.10,2013-05-24 22:50:00,
2013-05-24 16:05:00,62.0,47.0,30.00,SE,128,0.0,6.0,58,0.00,,,0.02,weatherlink.com 1.10,2013-05-24 23:05:00,
2013-05-24 16:20:00,62.6,48.0,29.99,SSW,208,0.0,8.0,59,0.00,,,0.02,weatherlink.com 1.10,2013-05-24 23:20:00,
2013-05-24 16:35:00,62.9,49.0,29.99,South,169,3.0,8.0,61,0.00,,,0.02,weatherlink.com 1.10,2013-05-24 23:35:00,
2013-05-24 16:50:00,63.9,48.0,29.99,South,186,4.0,8.0,56,0.00,,,0.02,weatherlink.com 1.10,2013-05-24 23:50:00,
2013-05-24 17:05:00,62.9,48.0,29.99,South,170,1.0,7.0,59,0.00,,,0.02,weatherlink.com 1.10,2013-05-25 00:05:00,
2013-05-24 17:20:00,62.8,49.0,29.99,South,183,1.0,8.0,60,0.00,,,0.02,weatherlink.com 1.10,2013-05-25 00:20:00,
2013-05-24 17:35:00,64.0,49.0,29.99,SW,219,2.0,7.0,58,0.00,,,0.02,weatherlink.com 1.10,2013-05-25 00:35:00,
2013-05-24 17:50:00,63.3,49.0,30.00,WSW,246,1.0,6.0,60,0.00,,,0.02,weatherlink.com 1.10,2013-05-25 00:50:00,
2013-05-24 18:05:00,62.2,49.0,30.00,South,190,0.0,4.0,62,0.00,,,0.02,weatherlink.com 1.10,2013-05-25 01:05:00,
2013-05-24 18:20:00,61.1,48.0,30.00,South,182,0.0,6.0,62,0.00,,,0.02,weatherlink.com 1.10,2013-05-25 01:20:00,
2013-05-24 18:35:00,60.1,47.0,30.00,SW,231,0.0,6.0,62,0.00,,,0.02,weatherlink.com 1.10,2013-05-25 01:35:00,
2013-05-24 19:05:00,58.7,50.0,30.00,WSW,252,0.0,3.0,72,0.00,,,0.02,weatherlink.com 1.10,2013-05-25 02:05:00,
2013-05-24 19:20:00,58.1,49.0,30.01,SW,229,0.0,4.0,71,0.00,,,0.02,weatherlink.com 1.10,2013-05-25 02:20:00,
2013-05-24 19:35:00,57.7,49.0,30.01,WNW,294,0.0,3.0,72,0.00,,,0.02,weatherlink.com 1.10,2013-05-25 02:35:00,
2013-05-24 19:50:00,57.1,49.0,30.01,SSE,160,0.0,3.0,75,0.00,,,0.02,weatherlink.com 1.10,2013-05-25 02:50:00,
2013-05-24 20:05:00,56.7,50.0,30.01,SW,219,0.0,2.0,77,0.00,,,0.02,weatherlink.com 1.10,2013-05-25 03:05:00,
2013-05-24 20:20:00,56.3,50.0,30.01,East,96,4.0,4.0,80,0.00,,,0.02,weatherlink.com 1.10,2013-05-25 03:20:00,
2013-05-24 20:35:00,56.0,50.0,30.01,South,181,0.0,5.0,81,0.00,,,0.02,weatherlink.com 1.10,2013-05-25 03:35:00,
2013-05-24 20:50:00,55.6,51.0,30.02,WSW,252,0.0,4.0,83,0.00,,,0.02,weatherlink.com 1.10,2013-05-25 03:50:00,
2013-05-24 21:05:00,55.3,51.0,30.02,SW,229,0.0,6.0,84,0.00,,,0.02,weatherlink.com 1.10,2013-05-25 04:05:00,
2013-05-24 21:20:00,54.9,50.0,30.03,WNW,294,1.0,4.0,83,0.00,,,0.02,weatherlink.com 1.10,2013-05-25 04:20:00,
2013-05-24 21:35:00,54.5,50.0,30.03,SSW,200,0.0,4.0,84,0.00,,,0.02,weatherlink.com 1.10,2013-05-25 04:35:00,
2013-05-24 21:50:00,54.1,50.0,30.03,SW,224,0.0,3.0,85,0.00,,,0.02,weatherlink.com 1.10,2013-05-25 04:50:00,
2013-05-24 22:05:00,53.8,50.0,30.04,SW,224,0.0,2.0,86,0.00,,,0.02,weatherlink.com 1.10,2013-05-25 05:05:00,
2013-05-24 22:20:00,53.6,50.0,30.03,SSW,195,0.0,3.0,86,0.00,,,0.02,weatherlink.com 1.10,2013-05-25 05:20:00,
2013-05-24 22:35:00,53.3,49.0,30.03,SSW,210,0.0,3.0,86,0.00,,,0.02,weatherlink.com 1.10,2013-05-25 05:35:00,
2013-05-24 22:50:00,53.0,49.0,30.02,SE,128,1.0,2.0,86,0.00,,,0.02,weatherlink.com 1.10,2013-05-25 05:50:00,
2013-05-24 23:05:00,52.8,49.0,30.02,NNW,330,0.0,1.0,87,0.00,,,0.02,weatherlink.com 1.10,2013-05-25 06:05:00,
2013-05-24 23:20:00,52.4,49.0,30.02,SW,232,0.0,3.0,88,0.00,,,0.02,weatherlink.com 1.10,2013-05-25 06:20:00,
2013-05-24 23:35:00,52.0,49.0,30.02,WSW,253,0.0,2.0,89,0.00,,,0.02,weatherlink.com 1.10,2013-05-25 06:35:00,
2013-05-24 23:50:00,51.7,49.0,30.02,SW,231,0.0,2.0,89,0.00,,,0.02,weatherlink.com 1.10,2013-05-25 06:50:00,